Home   Weather   Ahvaz   Past weeks

Flag for Iran Past Weather in Ahvaz, Iran — Yesterday and Last 2 Weeks

Now
111 °F

Sunny.


Feels Like: 108 °F
Forecast: 87 / 118 °F
Wind: 7 mph from North

Location: Ahwaz

Current Time: May 29, 2017 at 7:36:38 pm

Latest Report: May 29, 2017 at 7:00 pm


Visibility: 10 mi

Pressure: 29.62 "Hg

Humidity: 13%

Dew Point: 50 °F

Location of AhvazLocation

Past Weather in Ahvaz — Graph

°F

Ahvaz Temperature Yesterday

Maximum temperature yesterday: 111 °F (at 4:30 pm)
Minimum temperature yesterday: 82 °F (at 6:30 am)
Average temperature yesterday: 100 °F

High & Low Weather Summary for the Past Weeks

 TemperatureHumidityPressure
High115 °F (May 29, 4:00 pm)69% (May 15, 4:30 am)29.83 "Hg (May 15, 4:30 am)
Low72 °F (May 15, 5:30 am)6% (May 20, 3:00 pm)29.53 "Hg (May 20, 7:00 pm)
Average97 °F28%29.68 "Hg
* Reported May 14 5:30 pm — May 29 6:00 pm, Ahvaz. Weather by CustomWeather, © 2017

Note: Actual official high and low records may vary slightly from our data, if they occured in-between our weather recording intervals... More about our weather records

Advertising

Ahvaz Weather History for the Previous 24 Hours

Scroll right to see more
 ConditionsComfort  
Time TempWeatherWind HumidityBarometerVisibility
6:00 pm
Mon, May 29
113 °FSunny.7 mph14%29.62 "Hg10 mi
5:30 pm113 °FSunny.7 mph13%29.62 "Hg10 mi
5:00 pm115 °FSunny.9 mph13%29.62 "Hg10 mi
4:00 pm115 °FSunny.12 mph13%29.65 "Hg10 mi
3:30 pm113 °FSunny.9 mph13%29.65 "Hg10 mi
3:00 pm113 °FSunny.12 mph12%29.65 "Hg10 mi
2:30 pm111 °FSunny.9 mph15%29.68 "Hg10 mi
2:00 pm113 °FSunny.7 mph19%29.68 "Hg10 mi
1:00 pm111 °FSunny.7 mph16%29.68 "Hg10 mi
12:30 pm109 °FSunny.7 mph17%29.68 "Hg10 mi
12:00 pm108 °FSunny.9 mph19%29.71 "Hg10 mi
11:30 am104 °FSunny.7 mph21%29.71 "Hg10 mi
11:00 am104 °FSunny.7 mph14%29.71 "Hg10 mi
10:30 am100 °FSunny.7 mph15%29.71 "Hg10 mi
10:00 am99 °FSunny.7 mph24%29.71 "Hg10 mi
9:30 am95 °FSunny.7 mph26%29.68 "Hg10 mi
9:00 am91 °FSunny.7 mph24%29.68 "Hg10 mi
8:30 am90 °FSunny.7 mph22%29.68 "Hg10 mi
8:00 am86 °FSunny.5 mph25%29.68 "Hg10 mi
6:30 am82 °FClear.5 mph28%29.65 "Hg10 mi
5:30 am84 °FClear.5 mph27%29.65 "Hg10 mi
4:30 am86 °FClear.7 mph27%29.65 "Hg10 mi
3:30 am90 °FClear.7 mph27%29.65 "Hg10 mi
2:30 am91 °FClear.7 mph24%29.65 "Hg10 mi
1:30 am93 °FClear.9 mph24%29.68 "Hg10 mi
1:00 am93 °FClear.9 mph30%29.68 "Hg10 mi
12:00 am95 °FClear.7 mph28%29.68 "Hg10 mi
11:30 pm
Sun, May 28
95 °FClear.7 mph28%29.68 "Hg10 mi
11:00 pm97 °FClear.7 mph27%29.68 "Hg10 mi
10:30 pm97 °FClear.7 mph27%29.68 "Hg10 mi
10:00 pm99 °FClear.7 mph17%29.65 "Hg10 mi
9:30 pm99 °FClear.5 mph17%29.65 "Hg10 mi
9:00 pm100 °FClear.5 mph15%29.65 "Hg10 mi
8:30 pm102 °FSunny.5 mph12%29.65 "Hg10 mi
8:00 pm104 °FSunny.5 mph10%29.65 "Hg10 mi
7:30 pm108 °FSunny.5 mph9%29.62 "Hg10 mi
7:00 pm109 °FSunny.5 mph14%29.62 "Hg10 mi
Weather by CustomWeather, © 2017

See weather overviewHow to use our weather pages